• In Hungary
  • List of Countries
  • For 7 days
  • Water Temperature
  • Satellite Maps
  • Weather Map
  • News
  • Weather Widgets
  • user-avatar
    Login

    Hourly Weather Klasterec nad Ohri

    Today, 23 October, Monday

    Time Temperature Precipitation Wind Pressure Humidity
    00:00 +7°C° 0.2 mm 4 mps 732 mmHg 87%
    01:00 +8°C° 0 mm 3 mps 731 mmHg 88%
    02:00 +8°C° 0.2 mm 3 mps 732 mmHg 88%
    03:00 +7°C° 0.2 mm 4 mps 732 mmHg 88%
    04:00 +7°C° 0.2 mm 4 mps 732 mmHg 88%
    05:00 +6°C° 0 mm 4 mps 732 mmHg 88%
    06:00 +6°C° 0 mm 4 mps 732 mmHg 88%
    07:00 +7°C° 0 mm 3 mps 732 mmHg 89%
    08:00 +8°C° 0 mm 3 mps 733 mmHg 86%
    09:00 +7°C° 0 mm 4 mps 733 mmHg 84%
    10:00 +8°C° 0 mm 4 mps 733 mmHg 82%
    11:00 +8°C° 0.2 mm 4 mps 733 mmHg 82%
    12:00 +8°C° 0.2 mm 4 mps 734 mmHg 82%
    13:00 +8°C° 0 mm 4 mps 734 mmHg 83%
    14:00 +8°C° 0.2 mm 4 mps 734 mmHg 83%
    15:00 +8°C° 0.2 mm 4 mps 734 mmHg 83%
    16:00 +8°C° 0.2 mm 4 mps 734 mmHg 84%
    17:00 +9°C° 0 mm 3 mps 735 mmHg 85%
    18:00 +8°C° 0 mm 3 mps 735 mmHg 87%
    19:00 +8°C° 0 mm 3 mps 735 mmHg 89%
    20:00 +8°C° 0.1 mm 3 mps 735 mmHg 90%
    21:00 +7°C° 0.1 mm 3 mps 736 mmHg 91%
    22:00 +7°C° 0.1 mm 3 mps 736 mmHg 92%
    23:00 +8°C° 0.3 mm 3 mps 736 mmHg 92%

    Tomorrow, 24 October, Tuesday

    Time Temperature Precipitation Wind Pressure Humidity
    00:00 +8°C° 0.3 mm 3 mps 737 mmHg 93%
    01:00 +8°C° 0.3 mm 3 mps 737 mmHg 93%
    02:00 +8°C° 0.1 mm 3 mps 737 mmHg 93%
    03:00 +8°C° 0.1 mm 3 mps 737 mmHg 92%
    04:00 +9°C° 0.1 mm 3 mps 737 mmHg 92%
    05:00 +9°C° 0 mm 2 mps 738 mmHg 93%
    06:00 +8°C° 0 mm 2 mps 738 mmHg 93%
    07:00 +8°C° 0 mm 2 mps 738 mmHg 94%
    08:00 +9°C° 0 mm 2 mps 739 mmHg 90%
    09:00 +10°C° 0 mm 3 mps 739 mmHg 87%
    10:00 +11°C° 0 mm 3 mps 739 mmHg 83%
    11:00 +11°C° 0 mm 3 mps 739 mmHg 80%
    12:00 +12°C° 0 mm 3 mps 739 mmHg 76%
    13:00 +13°C° 0 mm 3 mps 739 mmHg 73%
    14:00 +13°C° 0 mm 3 mps 739 mmHg 76%
    15:00 +12°C° 0 mm 3 mps 739 mmHg 79%
    16:00 +13°C° 0 mm 2 mps 739 mmHg 82%
    17:00 +12°C° 0 mm 2 mps 739 mmHg 85%
    18:00 +12°C° 0 mm 2 mps 739 mmHg 88%
    19:00 +10°C° 0 mm 3 mps 739 mmHg 91%
    20:00 +10°C° 0.2 mm 3 mps 739 mmHg 91%
    21:00 +10°C° 0.2 mm 3 mps 739 mmHg 91%
    22:00 +10°C° 0.2 mm 3 mps 739 mmHg 91%
    23:00 +11°C° 0.4 mm 3 mps 738 mmHg 91%

    Day after tomorrow, 25 October, Wednesday

    Time Temperature Precipitation Wind Pressure Humidity
    00:00 +11°C° 0.4 mm 3 mps 738 mmHg 92%
    01:00 +11°C° 0.4 mm 3 mps 738 mmHg 92%
    02:00 +11°C° 0.1 mm 3 mps 738 mmHg 92%
    03:00 +11°C° 0.1 mm 3 mps 738 mmHg 92%
    04:00 +12°C° 0.1 mm 3 mps 738 mmHg 92%
    05:00 +12°C° 0 mm 3 mps 738 mmHg 93%
    06:00 +11°C° 0 mm 3 mps 738 mmHg 93%
    07:00 +11°C° 0 mm 3 mps 738 mmHg 94%
    08:00 +12°C° 0 mm 4 mps 738 mmHg 91%
    09:00 +13°C° 0 mm 4 mps 738 mmHg 88%
    10:00 +14°C° 0 mm 5 mps 738 mmHg 85%
    11:00 +15°C° 0 mm 5 mps 738 mmHg 82%
    12:00 +15°C° 0 mm 5 mps 738 mmHg 80%
    13:00 +16°C° 0 mm 5 mps 738 mmHg 77%
    14:00 +15°C° 0 mm 5 mps 738 mmHg 78%
    15:00 +15°C° 0 mm 4 mps 738 mmHg 80%
    16:00 +14°C° 0 mm 4 mps 738 mmHg 81%
    17:00 +14°C° 0 mm 4 mps 738 mmHg 82%
    18:00 +13°C° 0 mm 3 mps 739 mmHg 84%
    19:00 +13°C° 0 mm 3 mps 739 mmHg 86%
    20:00 +12°C° 0 mm 3 mps 739 mmHg 87%
    21:00 +13°C° 0 mm 2 mps 740 mmHg 89%
    22:00 +12°C° 0 mm 2 mps 740 mmHg 91%
    23:00 +12°C° 0 mm 2 mps 740 mmHg 91%

    26 October, Thursday

    Time Temperature Precipitation Wind Pressure Humidity
    00:00 +12°C° 0 mm 2 mps 740 mmHg 92%
    01:00 +12°C° 0 mm 2 mps 740 mmHg 92%
    02:00 +12°C° 0 mm 2 mps 740 mmHg 93%
    03:00 +10°C° 0 mm 2 mps 740 mmHg 93%
    04:00 +10°C° 0 mm 2 mps 739 mmHg 94%
    05:00 +10°C° 0 mm 2 mps 739 mmHg 94%
    06:00 +10°C° 0 mm 2 mps 739 mmHg 94%
    07:00 +10°C° 0 mm 2 mps 739 mmHg 94%
    08:00 +12°C° 0 mm 2 mps 739 mmHg 91%
    09:00 +12°C° 0 mm 3 mps 740 mmHg 87%
    10:00 +13°C° 0 mm 3 mps 740 mmHg 84%
    11:00 +14°C° 0 mm 3 mps 739 mmHg 80%
    12:00 +16°C° 0 mm 3 mps 739 mmHg 77%
    13:00 +17°C° 0 mm 4 mps 738 mmHg 73%
    14:00 +16°C° 0 mm 3 mps 738 mmHg 76%
    15:00 +16°C° 0 mm 3 mps 738 mmHg 78%
    16:00 +16°C° 0 mm 3 mps 737 mmHg 81%
    17:00 +14°C° 0 mm 3 mps 737 mmHg 85%
    18:00 +13°C° 0 mm 3 mps 737 mmHg 88%
    19:00 +13°C° 0 mm 3 mps 737 mmHg 92%
    20:00 +13°C° 0 mm 3 mps 737 mmHg 92%
    21:00 +13°C° 0 mm 3 mps 737 mmHg 93%
    22:00 +13°C° 0 mm 3 mps 737 mmHg 93%
    23:00 +13°C° 0 mm 3 mps 737 mmHg 93%

    27 October, Friday

    Time Temperature Precipitation Wind Pressure Humidity
    00:00 +13°C° 0 mm 3 mps 737 mmHg 94%
    01:00 +13°C° 0 mm 3 mps 736 mmHg 94%
    02:00 +13°C° 0 mm 3 mps 736 mmHg 93%
    03:00 +12°C° 0 mm 3 mps 736 mmHg 92%
    04:00 +12°C° 0 mm 4 mps 735 mmHg 92%
    05:00 +12°C° 0 mm 4 mps 735 mmHg 92%
    06:00 +12°C° 0 mm 4 mps 735 mmHg 92%
    07:00 +11°C° 0 mm 4 mps 734 mmHg 91%
    08:00 +12°C° 0.3 mm 4 mps 734 mmHg 89%
    09:00 +12°C° 0.3 mm 4 mps 734 mmHg 87%
    10:00 +12°C° 0.3 mm 5 mps 734 mmHg 85%
    11:00 +12°C° 1.6 mm 5 mps 733 mmHg 86%
    12:00 +10°C° 1.6 mm 5 mps 733 mmHg 87%
    13:00 +9°C° 1.6 mm 5 mps 733 mmHg 87%
    14:00 +9°C° 1.5 mm 5 mps 733 mmHg 87%
    15:00 +8°C° 1.5 mm 5 mps 733 mmHg 86%
    16:00 +7°C° 1.5 mm 5 mps 733 mmHg 85%
    17:00 +7°C° 0.2 mm 5 mps 733 mmHg 85%
    18:00 +7°C° 0.2 mm 6 mps 734 mmHg 84%
    19:00 +7°C° 0.2 mm 6 mps 734 mmHg 84%
    20:00 +7°C° 0.1 mm 6 mps 734 mmHg 84%
    21:00 +7°C° 0.1 mm 6 mps 734 mmHg 84%
    22:00 +7°C° 0.1 mm 6 mps 735 mmHg 84%
    23:00 +7°C° 0.1 mm 6 mps 735 mmHg 84%

    28 October, Saturday

    Time Temperature Precipitation Wind Pressure Humidity
    00:00 +7°C° 0.1 mm 6 mps 735 mmHg 84%
    01:00 +7°C° 0.1 mm 6 mps 735 mmHg 84%
    02:00 +7°C° 0.1 mm 6 mps 735 mmHg 84%
    03:00 +7°C° 0.1 mm 6 mps 735 mmHg 84%
    04:00 +7°C° 0.1 mm 5 mps 735 mmHg 84%
    05:00 +6°C° 0.1 mm 5 mps 734 mmHg 85%
    06:00 +6°C° 0.1 mm 5 mps 734 mmHg 85%
    07:00 +6°C° 0.1 mm 5 mps 734 mmHg 85%
    08:00 +6°C° 0.3 mm 5 mps 734 mmHg 84%
    09:00 +5°C° 0.3 mm 6 mps 734 mmHg 84%
    10:00 +7°C° 0.3 mm 6 mps 734 mmHg 83%
    11:00 +7°C° 0.7 mm 6 mps 733 mmHg 83%
    12:00 +6°C° 0.7 mm 7 mps 733 mmHg 82%
    13:00 +6°C° 0.7 mm 7 mps 732 mmHg 82%
    14:00 +7°C° 0.4 mm 6 mps 732 mmHg 83%
    15:00 +7°C° 0.4 mm 6 mps 731 mmHg 83%
    16:00 +7°C° 0.4 mm 6 mps 731 mmHg 84%
    17:00 +7°C° 0.7 mm 6 mps 731 mmHg 85%
    18:00 +6°C° 0.7 mm 7 mps 731 mmHg 85%
    19:00 +6°C° 0.7 mm 7 mps 731 mmHg 86%
    20:00 +6°C° 0.3 mm 7 mps 731 mmHg 86%
    21:00 +6°C° 0.3 mm 7 mps 730 mmHg 86%
    22:00 +8°C° 0.3 mm 7 mps 730 mmHg 86%
    23:00 +6°C° 0.2 mm 7 mps 730 mmHg 85%

    29 October, Sunday

    Time Temperature Precipitation Wind Pressure Humidity
    00:00 +6°C° 0.2 mm 7 mps 730 mmHg 84%
    01:00 +6°C° 0.2 mm 7 mps 730 mmHg 83%
    02:00 +6°C° 0.2 mm 7 mps 730 mmHg 83%
    03:00 +6°C° 0.2 mm 7 mps 731 mmHg 84%
    04:00 +5°C° 0.2 mm 6 mps 731 mmHg 84%
    05:00 +5°C° 0.1 mm 6 mps 731 mmHg 85%
    06:00 +6°C° 0.1 mm 5 mps 731 mmHg 86%
    07:00 +6°C° 0.1 mm 5 mps 732 mmHg 87%
    08:00 +6°C° 0.1 mm 5 mps 732 mmHg 84%
    09:00 +7°C° 0.1 mm 6 mps 732 mmHg 81%
    10:00 +7°C° 0.1 mm 6 mps 732 mmHg 78%
    11:00 +8°C° 0.1 mm 6 mps 732 mmHg 78%
    12:00 +8°C° 0.1 mm 6 mps 732 mmHg 77%
    13:00 +8°C° 0.1 mm 6 mps 732 mmHg 77%
    14:00 +8°C° 0 mm 5 mps 731 mmHg 78%
    15:00 +8°C° 0 mm 5 mps 731 mmHg 80%
    16:00 +8°C° 0 mm 5 mps 730 mmHg 82%
    17:00 +8°C° 0.3 mm 5 mps 730 mmHg 84%
    18:00 +8°C° 0.3 mm 5 mps 729 mmHg 86%
    19:00 +7°C° 0.3 mm 5 mps 729 mmHg 88%
    20:00 +7°C° 0.5 mm 5 mps 729 mmHg 88%
    21:00 +7°C° 0.5 mm 5 mps 728 mmHg 88%
    22:00 +7°C° 0.5 mm 5 mps 728 mmHg 88%
    23:00 +7°C° 0.2 mm 5 mps 728 mmHg 88%
    Show more